FW2145 Weather Reports


time (UTC)temp
C
wind
direction
speed
KPH
gust
KPH
rain 1hr
cm
rain 24hr
cm
rain mn
cm
humidity
%
barometer
mb
20260510083004 10 225 1.6 3.2 0.00 0.61 0.00 98 974.4
20260510082004 10 180 0.0 0.0 0.00 0.61 0.00 98 974.5
20260510081504 10 180 0.0 0.0 0.00 0.61 0.00 98 974.5
20260510081005 10 180 0.0 0.0 0.00 0.61 0.00 98 974.4
20260510080503 10 158 0.0 0.0 0.00 0.61 0.00 98 974.4
20260510080004 10 176 0.0 0.0 0.00 0.61 0.00 98 974.7
20260510075004 10 158 0.0 0.0 0.00 0.61 0.00 98 975.0
20260510074503 10 158 0.0 0.0 0.00 0.61 0.00 98 975.0
20260510074004 10 158 0.0 0.0 0.00 0.61 0.00 98 975.0
20260510073504 10 180 0.0 0.0 0.00 0.61 0.00 98 975.1
20260510073004 10 135 0.0 0.0 0.00 0.61 0.00 98 975.1
20260510072504 10 180 0.0 0.0 0.00 0.61 0.00 98 975.2
20260510072004 10 180 0.0 0.0 0.00 0.61 0.00 98 975.2
20260510071504 10 180 0.0 0.0 0.00 0.61 0.00 98 975.2
20260510071004 10 180 0.0 0.0 0.00 0.61 0.00 98 975.3
20260510070504 10 180 0.0 0.0 0.00 0.61 0.00 98 975.3
20260510065504 10 158 0.0 0.0 0.00 0.61 0.00 98 975.2
20260510064504 10 231 1.6 3.2 0.00 0.61 0.00 98 974.9
20260510064004 10 148 0.0 0.0 0.00 0.61 0.00 98 974.9
20260510063004 10 270 0.0 0.0 0.00 0.61 0.00 98 974.7
20260510062004 10 158 0.0 0.0 0.00 0.61 0.00 98 974.7
20260510061504 10 158 0.0 0.0 0.00 0.61 0.00 98 974.7
20260510061004 10 158 0.0 0.0 0.00 0.61 0.00 98 974.7
20260510060503 10 225 0.0 0.0 0.00 0.61 0.00 98 974.7
20260510060004 10 180 0.0 0.0 0.00 0.61 0.00 98 974.7
20260510055504 10 150 0.0 3.2 0.00 0.61 0.00 98 974.7
20260510054005 10 215 0.0 0.0 0.00 0.61 0.00 98 974.9
20260510053504 10 210 0.0 3.2 0.00 0.61 0.00 98 974.8
20260510053004 10 212 1.6 3.2 0.00 0.61 0.00 98 974.8
20260510052005 10 180 0.0 0.0 0.00 0.61 0.00 98 974.8
20260510051004 10 189 0.0 0.0 0.00 0.61 0.00 98 974.7
20260510050504 10 202 0.0 0.0 0.00 0.61 0.00 98 974.7
20260510050004 10 228 0.0 0.0 0.00 0.61 0.00 98 974.5
20260510045504 10 213 0.0 0.0 0.00 0.61 0.00 98 974.5
20260510045003 10 150 0.0 0.0 0.00 0.61 0.00 98 974.5
20260510044504 10 202 0.0 1.6 0.00 0.61 0.00 98 974.6
20260510044004 10 206 0.0 0.0 0.00 0.61 0.00 98 974.6
20260510043504 10 202 0.0 0.0 0.00 0.61 0.00 98 974.5
20260510043004 10 180 0.0 0.0 0.00 0.61 0.00 97 974.5
20260510042504 10 180 0.0 0.0 0.00 0.61 0.00 97 974.5
20260510042004 10 180 0.0 0.0 0.00 0.61 0.00 97 974.5
20260510041504 10 145 0.0 0.0 0.00 0.61 0.00 97 974.5
20260510041004 10 187 0.0 3.2 0.00 0.61 0.00 97 974.5
20260510040504 10 216 0.0 3.2 0.00 0.61 0.00 97 974.5
20260510040004 10 190 0.0 3.2 0.00 0.61 0.00 97 974.4
20260510035504 10 179 0.0 3.2 0.00 0.61 0.61 97 974.4
20260510034004 10 182 0.0 0.0 0.00 0.61 0.61 97 974.3
20260510033504 10 225 0.0 1.6 0.00 0.61 0.61 97 974.2
20260510033004 10 162 0.0 0.0 0.00 0.61 0.61 97 974.2
20260510032004 10 225 1.6 3.2 0.00 0.61 0.61 97 974.1
20260510031504 10 180 0.0 0.0 0.00 0.61 0.61 97 974.1
20260510031004 10 158 0.0 0.0 0.00 0.61 0.61 96 974.0
20260510030504 9 180 0.0 0.0 0.00 0.61 0.61 96 974.0
20260510030004 9 158 0.0 0.0 0.00 0.61 0.61 95 974.2
20260510025505 9 158 0.0 0.0 0.00 0.61 0.61 95 974.2
20260510025004 8 158 0.0 0.0 0.00 0.61 0.61 95 974.2
20260510024004 8 165 0.0 0.0 0.00 0.61 0.61 95 974.2
20260510023504 8 158 0.0 0.0 0.00 0.61 0.61 95 974.3
20260510023004 9 180 0.0 0.0 0.00 0.61 0.61 95 974.3
20260510022504 9 180 0.0 0.0 0.00 0.61 0.61 95 974.3
20260510022004 9 180 0.0 0.0 0.00 0.61 0.61 95 974.3
20260510021504 9 180 0.0 0.0 0.00 0.61 0.61 95 974.3
20260510021004 9 158 0.0 0.0 0.00 0.61 0.61 95 974.2
20260510020504 9 168 0.0 0.0 0.00 0.61 0.61 95 974.2
20260510020005 9 180 0.0 0.0 0.00 0.61 0.61 95 974.0
20260510015504 10 180 0.0 0.0 0.00 0.61 0.61 95 974.0
20260510015004 10 158 0.0 0.0 0.00 0.61 0.61 95 974.0
20260510014504 10 168 0.0 0.0 0.00 0.61 0.61 94 974.0
20260510014004 10 179 0.0 0.0 0.00 0.61 0.61 94 974.0
20260510013504 10 158 0.0 0.0 0.00 0.61 0.61 94 974.0
20260510013004 10 158 0.0 0.0 0.00 0.61 0.61 94 974.0
20260510012004 10 180 0.0 0.0 0.00 0.61 0.61 94 973.9
20260510011504 10 180 0.0 0.0 0.00 0.61 0.61 94 973.9
20260510011004 10 176 0.0 0.0 0.00 0.61 0.61 94 973.8
20260510010504 10 158 0.0 0.0 0.00 0.61 0.61 94 973.8
20260510010004 10 158 0.0 0.0 0.00 0.61 0.61 94 973.8
20260510005504 10 158 0.0 0.0 0.00 0.61 0.61 94 973.8
20260510005004 10 158 0.0 0.0 0.00 0.61 0.61 95 973.7
20260510004504 10 158 0.0 0.0 0.00 0.61 0.61 95 973.7
20260510004004 10 180 0.0 0.0 0.00 0.61 0.61 95 973.7
20260510003503 10 180 0.0 0.0 0.00 0.61 0.61 94 973.4
20260510003004 10 180 0.0 0.0 0.00 0.61 0.61 94 973.4
20260510002004 11 180 0.0 0.0 0.00 0.61 0.61 93 973.2
20260510001005 11 180 0.0 0.0 0.00 0.61 0.61 93 973.1
20260510000504 11 160 0.0 0.0 0.00 0.61 0.61 93 973.1
20260510000004 11 180 0.0 0.0 0.00 0.61 0.61 93 973.0
20260509235504 11 170 0.0 0.0 0.00 0.61 0.61 92 973.0
20260509235004 12 180 0.0 0.0 0.00 0.61 0.61 92 973.0
20260509234504 12 112 0.0 0.0 0.00 0.61 0.61 92 972.9
20260509233504 12 112 0.0 1.6 0.00 0.61 0.61 92 973.0
20260509232504 12 166 0.0 1.6 0.00 0.61 0.61 92 972.8
20260509232004 12 158 0.0 3.2 0.00 0.61 0.61 91 972.8
20260509231504 12 167 0.0 3.2 0.00 0.61 0.61 91 972.8
20260509230504 13 184 1.6 1.6 0.00 0.61 0.61 91 972.8
20260509230004 13 180 3.2 3.2 0.00 0.61 0.61 91 972.8
20260509225504 13 185 1.6 3.2 0.00 0.61 0.61 91 972.8
20260509225004 13 202 3.2 4.8 0.00 0.61 0.61 91 972.9
20260509224504 13 135 1.6 3.2 0.00 0.61 0.61 91 972.9
20260509224004 13 180 0.0 3.2 0.00 0.61 0.61 91 972.9
20260509223504 13 220 1.6 1.6 0.00 0.61 0.61 91 973.0
20260509223004 13 212 1.6 3.2 0.00 0.61 0.61 91 973.0
20260509222503 13 147 1.6 3.2 0.00 0.61 0.61 91 972.9
20260509222004 13 112 1.6 3.2 0.00 0.61 0.61 91 972.9
20260509221504 13 179 1.6 1.6 0.00 0.61 0.61 91 972.9
20260509220004 13 179 3.2 3.2 0.00 0.61 0.61 92 973.2
20260509215504 13 124 0.0 0.0 0.00 0.61 0.61 93 973.2
20260509214504 13 214 0.0 1.6 0.00 0.61 0.61 93 973.3
20260509214004 13 145 0.0 1.6 0.00 0.61 0.61 93 973.3
20260509213504 13 202 1.6 3.2 0.00 0.61 0.61 93 973.4
20260509213004 13 180 0.0 3.2 0.00 0.61 0.61 93 973.4
20260509212504 13 229 3.2 4.8 0.00 0.61 0.61 93 973.4
20260509212004 13 129 0.0 3.2 0.00 0.61 0.61 93 973.4
20260509211004 12 209 1.6 3.2 0.00 0.61 0.61 94 973.3
20260509210004 12 186 0.0 0.0 0.00 0.61 0.61 93 973.4
20260509205504 12 199 0.0 0.0 0.03 0.61 0.61 93 973.4
20260509204004 12 158 0.0 0.0 0.05 0.61 0.61 93 973.5
20260509203504 12 180 0.0 0.0 0.05 0.61 0.61 93 973.5
20260509203004 12 180 0.0 0.0 0.08 0.61 0.61 93 973.5
20260509202504 12 159 0.0 0.0 0.10 0.61 0.61 93 973.5
20260509202005 12 135 0.0 1.6 0.10 0.61 0.61 93 973.5
20260509201004 12 203 0.0 0.0 0.15 0.61 0.61 94 973.6
20260509200504 12 203 0.0 0.0 0.15 0.61 0.61 94 973.6
20260509200004 11 202 1.6 3.2 0.15 0.61 0.61 94 973.9
20260509195504 11 176 0.0 1.6 0.15 0.58 0.58 94 973.9
20260509195004 11 202 0.0 1.6 0.18 0.58 0.58 94 974.1
20260509194505 11 228 1.6 3.2 0.15 0.56 0.56 94 974.2
20260509194005 11 225 1.6 3.2 0.18 0.56 0.56 94 974.2
20260509193504 11 186 1.6 1.6 0.20 0.56 0.56 94 974.4
20260509193004 11 180 0.0 0.0 0.18 0.53 0.53 94 974.4
20260509192504 11 196 0.0 0.0 0.18 0.51 0.51 94 974.6
20260509191504 11 169 0.0 3.2 0.20 0.51 0.51 93 974.6
20260509191004 11 191 1.6 1.6 0.20 0.46 0.46 93 974.7
20260509190504 11 203 1.6 3.2 0.20 0.46 0.46 93 974.7
20260509190004 11 237 1.6 3.2 0.23 0.46 0.46 93 974.8
20260509185504 11 118 1.6 3.2 0.23 0.43 0.43 93 974.8
20260509185004 11 208 3.2 3.2 0.23 0.41 0.41 93 974.8
20260509184504 11 189 1.6 3.2 0.25 0.41 0.41 93 974.8
20260509184004 11 200 4.8 8.0 0.25 0.38 0.38 93 974.8
20260509183504 11 219 3.2 3.2 0.23 0.36 0.36 94 974.7
20260509183004 11 161 1.6 1.6 0.25 0.36 0.36 94 974.7
20260509182504 11 158 0.0 0.0 0.23 0.33 0.33 94 974.9
20260509182004 11 180 0.0 0.0 0.20 0.30 0.30 94 974.9
20260509181504 11 161 3.2 3.2 0.20 0.30 0.30 93 974.9
20260509181004 11 202 0.0 3.2 0.18 0.25 0.25 93 974.8
20260509180504 11 158 1.6 1.6 0.18 0.25 0.25 93 974.8
20260509180004 11 201 3.2 3.2 0.15 0.23 0.23 93 975.0
20260509175504 11 217 1.6 3.2 0.15 0.20 0.20 93 975.0
20260509175004 11 155 3.2 3.2 0.13 0.18 0.18 92 975.0
20260509174504 12 220 3.2 4.8 0.10 0.15 0.15 92 975.0
20260509174004 12 202 4.8 4.8 0.08 0.13 0.13 92 975.0
20260509173504 12 180 3.2 3.2 0.08 0.13 0.13 92 974.8
20260509173003 12 225 3.2 4.8 0.05 0.10 0.10 92 974.8
20260509172504 12 121 4.8 4.8 0.05 0.10 0.10 92 974.9
20260509172004 12 220 1.6 3.2 0.05 0.10 0.10 92 974.9
20260509171504 12 112 1.6 3.2 0.05 0.10 0.10 91 974.9
20260509171004 12 191 3.2 4.8 0.03 0.08 0.08 90 974.8
20260509170504 12 183 3.2 4.8 0.03 0.08 0.08 90 974.8
20260509170004 12 231 3.2 4.8 0.03 0.08 0.08 90 974.8
20260509165505 12 174 3.2 4.8 0.00 0.05 0.05 90 974.8
20260509165004 12 166 0.0 3.2 0.00 0.05 0.05 90 974.8
20260509164504 12 22 3.2 4.8 0.00 0.05 0.05 90 974.8
20260509164004 12 245 4.8 4.8 0.00 0.05 0.05 90 974.8
20260509163504 12 158 1.6 4.8 0.00 0.05 0.05 90 974.8
20260509163005 12 268 3.2 8.0 0.00 0.05 0.05 91 974.8
20260509162504 12 112 4.8 4.8 0.00 0.05 0.05 91 975.0
20260509162004 12 190 3.2 4.8 0.00 0.05 0.05 92 975.0
20260509161504 12 233 1.6 3.2 0.00 0.05 0.05 92 975.0
20260509161004 12 180 3.2 4.8 0.00 0.05 0.05 92 975.3
20260509160504 11 230 1.6 3.2 0.00 0.05 0.05 92 975.3
20260509160004 11 180 0.0 3.2 0.00 0.05 0.05 92 974.9
20260509155504 11 225 3.2 4.8 0.00 0.05 0.05 92 974.9
20260509155004 11 181 0.0 1.6 0.00 0.05 0.05 92 974.9
20260509154505 11 180 1.6 1.6 0.00 0.05 0.05 92 975.0
20260509154004 11 145 0.0 0.0 0.00 0.05 0.05 91 975.0
20260509153504 11 180 0.0 0.0 0.03 0.05 0.05 91 975.2
20260509153004 11 180 1.6 3.2 0.03 0.05 0.05 91 975.2
20260509152004 11 136 1.6 3.2 0.03 0.05 0.05 91 975.5
20260509151504 11 124 0.0 1.6 0.03 0.05 0.05 91 975.5
20260509150504 11 130 3.2 3.2 0.05 0.05 0.05 91 975.5
20260509150004 11 175 1.6 3.2 0.05 0.05 0.05 90 975.5
20260509145504 11 139 3.2 3.2 0.05 0.05 0.05 90 975.5
20260509145004 11 160 3.2 3.2 0.05 0.05 0.05 90 975.4
20260509144504 12 185 3.2 3.2 0.05 0.05 0.05 90 975.3
20260509144005 12 248 1.6 8.0 0.05 0.05 0.05 90 975.3
20260509142004 11 180 1.6 3.2 0.03 0.03 0.03 90 975.2
20260509141504 11 154 0.0 3.2 0.03 0.03 0.03 90 975.2
20260509141004 11 90 1.6 1.6 0.03 0.03 0.03 90 975.1
20260509140504 11 180 0.0 0.0 0.00 0.00 0.00 90 975.1
20260509140005 11 202 0.0 0.0 0.00 0.00 0.00 90 975.0
20260509135504 11 205 0.0 1.6 0.00 0.00 0.00 90 975.0
20260509134504 11 225 0.0 3.2 0.00 0.00 0.00 90 974.9
20260509134004 11 88 1.6 3.2 0.00 0.00 0.00 91 974.9
20260509133504 11 99 1.6 3.2 0.00 0.00 0.00 91 975.1
20260509132504 11 149 0.0 1.6 0.00 0.00 0.00 91 975.2
20260509132003 11 56 3.2 3.2 0.00 0.00 0.00 91 975.2
20260509131504 10 201 1.6 1.6 0.00 0.00 0.00 91 975.2
20260509131004 11 112 1.6 3.2 0.00 0.00 0.00 91 975.4
20260509130504 11 112 0.0 0.0 0.00 0.00 0.00 90 975.4
20260509130004 10 230 0.0 3.2 0.00 0.00 0.00 90 975.4
20260509125004 10 169 0.0 0.0 0.00 0.00 0.00 91 975.4
20260509124004 10 135 0.0 0.0 0.00 0.00 0.00 93 975.4
20260509122504 10 192 0.0 0.0 0.00 0.00 0.00 94 975.5
20260509122004 10 158 0.0 0.0 0.00 0.00 0.00 95 975.5
20260509121004 9 112 0.0 0.0 0.00 0.00 0.00 95 975.5
20260509120504 9 112 0.0 0.0 0.00 0.00 0.00 95 975.5
20260509120004 9 158 0.0 0.0 0.00 0.00 0.00 95 975.5
20260509115004 8 180 0.0 3.2 0.00 0.00 0.00 95 974.9
20260509114504 8 184 0.0 0.0 0.00 0.00 0.00 95 974.9
20260509114004 8 180 0.0 0.0 0.00 0.00 0.00 95 974.9
20260509112504 8 202 0.0 0.0 0.00 0.00 0.00 95 975.0
20260509112004 8 202 0.0 0.0 0.00 0.00 0.00 95 975.0
20260509111504 8 189 0.0 0.0 0.00 0.00 0.00 95 975.0
20260509111004 8 189 0.0 0.0 0.00 0.00 0.00 95 974.9
20260509110504 8 197 0.0 0.0 0.00 0.00 0.00 95 974.9
20260509110004 8 150 0.0 0.0 0.00 0.00 0.00 95 975.1
20260509105504 8 140 0.0 0.0 0.00 0.00 0.00 95 975.1
20260509104504 7 180 0.0 0.0 0.00 0.00 0.00 95 975.3
20260509104004 7 180 0.0 0.0 0.00 0.00 0.00 95 975.3
20260509103504 7 217 0.0 0.0 0.00 0.00 0.00 95 975.1
20260509103004 7 180 0.0 0.0 0.00 0.00 0.00 95 975.1
20260509102504 7 195 0.0 0.0 0.00 0.00 0.00 95 975.1
20260509102004 7 180 0.0 0.0 0.00 0.00 0.00 95 975.1
20260509101004 7 202 0.0 0.0 0.00 0.00 0.00 95 975.2
20260509100504 7 180 0.0 0.0 0.00 0.00 0.00 95 975.2
20260509100005 7 180 0.0 0.0 0.00 0.00 0.00 95 975.2
20260509095504 7 180 0.0 0.0 0.00 0.00 0.00 95 975.2
20260509095004 7 180 0.0 0.0 0.00 0.00 0.00 95 975.2
20260509094504 7 180 0.0 0.0 0.00 0.00 0.00 95 975.2
20260509094004 7 180 0.0 0.0 0.00 0.00 0.00 95 975.2
20260509093504 7 180 0.0 0.0 0.00 0.00 0.00 95 975.2
20260509093004 7 202 0.0 0.0 0.00 0.00 0.00 95 975.2
20260509092504 7 202 0.0 0.0 0.00 0.00 0.00 95 975.3
20260509091504 7 202 0.0 0.0 0.00 0.00 0.00 95 975.3
20260509090504 7 202 0.0 0.0 0.00 0.00 0.00 95 975.4
20260509090004 7 192 0.0 0.0 0.00 0.00 0.00 95 975.4
20260509085504 7 180 0.0 0.0 0.00 0.00 0.00 95 975.4
20260509085004 7 158 0.0 0.0 0.00 0.00 0.00 95 975.5
20260509084504 7 158 0.0 0.0 0.00 0.00 0.00 95 975.5
20260509083504 7 158 0.0 0.0 0.00 0.00 0.00 95 975.6